When you browse on this site, cookies collect data to enhance your experience and personalize the content and advertising you see.
Visit our Privacy Policy to learn more. By continuing to use the site, you agree to this use of cookies and data.
  • în România
  • Lista ţărilor
  • Pe 7 zile
  • Temperatura apei
  • Hartă satelitară
  • Meteo pe hartă
  • Widget-uri
  • user-avatar
    Intrare

    Meteo pe oră la Kunganovo

    Astăzi, 20 Ianuarie, Duminică

    Timp Temperatura Precipitaţii Vânt Presiune Umiditate
    00:00 -9°C° 0 mm 3 m/s 743 mmHg 91%
    01:00 -8°C° 0 mm 3 m/s 742 mmHg 90%
    02:00 -8°C° 0 mm 4 m/s 742 mmHg 88%
    03:00 -8°C° 0 mm 4 m/s 742 mmHg 88%
    04:00 -8°C° 0 mm 5 m/s 741 mmHg 87%
    05:00 -8°C° 0 mm 5 m/s 741 mmHg 87%
    06:00 -8°C° 0.1 mm 5 m/s 740 mmHg 86%
    07:00 -9°C° 0.1 mm 6 m/s 740 mmHg 86%
    08:00 -9°C° 0.1 mm 6 m/s 739 mmHg 85%
    09:00 -8°C° 0.1 mm 6 m/s 739 mmHg 85%
    10:00 -6°C° 0.1 mm 6 m/s 739 mmHg 84%
    11:00 -7°C° 0.1 mm 7 m/s 739 mmHg 83%
    12:00 -6°C° 0.2 mm 6 m/s 738 mmHg 84%
    13:00 -5°C° 0.2 mm 6 m/s 738 mmHg 85%
    14:00 -5°C° 0.2 mm 6 m/s 738 mmHg 87%
    15:00 -6°C° 0.2 mm 5 m/s 738 mmHg 85%
    16:00 -6°C° 0.2 mm 5 m/s 738 mmHg 84%
    17:00 -7°C° 0.2 mm 4 m/s 738 mmHg 82%
    18:00 -8°C° 0 mm 4 m/s 738 mmHg 83%
    19:00 -8°C° 0 mm 4 m/s 738 mmHg 84%
    20:00 -9°C° 0 mm 4 m/s 738 mmHg 86%
    21:00 -10°C° 0 mm 4 m/s 738 mmHg 87%
    22:00 -10°C° 0 mm 4 m/s 738 mmHg 89%
    23:00 -10°C° 0 mm 3 m/s 739 mmHg 90%

    Mâine, 21 Ianuarie, Luni

    Timp Temperatura Precipitaţii Vânt Presiune Umiditate
    00:00 -10°C° 0 mm 3 m/s 739 mmHg 91%
    01:00 -10°C° 0 mm 3 m/s 739 mmHg 91%
    02:00 -10°C° 0 mm 3 m/s 740 mmHg 92%
    03:00 -10°C° 0 mm 2 m/s 740 mmHg 92%
    04:00 -10°C° 0 mm 2 m/s 740 mmHg 93%
    05:00 -12°C° 0 mm 2 m/s 740 mmHg 93%
    06:00 -13°C° 0 mm 2 m/s 740 mmHg 94%
    07:00 -14°C° 0 mm 2 m/s 740 mmHg 95%
    08:00 -15°C° 0 mm 2 m/s 740 mmHg 96%
    09:00 -15°C° 0 mm 3 m/s 741 mmHg 93%
    10:00 -14°C° 0 mm 3 m/s 741 mmHg 90%
    11:00 -14°C° 0 mm 3 m/s 741 mmHg 88%
    12:00 -14°C° 0 mm 3 m/s 741 mmHg 87%
    13:00 -14°C° 0 mm 3 m/s 742 mmHg 86%
    14:00 -14°C° 0 mm 3 m/s 742 mmHg 85%
    15:00 -15°C° 0 mm 3 m/s 742 mmHg 87%
    16:00 -16°C° 0 mm 3 m/s 742 mmHg 89%
    17:00 -16°C° 0 mm 2 m/s 743 mmHg 92%
    18:00 -17°C° 0 mm 2 m/s 743 mmHg 93%
    19:00 -19°C° 0 mm 2 m/s 743 mmHg 94%
    20:00 -20°C° 0 mm 2 m/s 744 mmHg 95%
    21:00 -20°C° 0 mm 2 m/s 744 mmHg 96%
    22:00 -21°C° 0 mm 2 m/s 744 mmHg 96%
    23:00 -23°C° 0 mm 2 m/s 744 mmHg 97%

    Poimâine, 22 Ianuarie, Marţi

    Timp Temperatura Precipitaţii Vânt Presiune Umiditate
    00:00 -23°C° 0 mm 2 m/s 745 mmHg 97%
    01:00 -23°C° 0 mm 2 m/s 745 mmHg 97%
    02:00 -23°C° 0 mm 2 m/s 745 mmHg 97%
    03:00 -23°C° 0 mm 2 m/s 745 mmHg 97%
    04:00 -23°C° 0 mm 2 m/s 746 mmHg 97%
    05:00 -23°C° 0 mm 2 m/s 746 mmHg 97%
    06:00 -23°C° 0 mm 2 m/s 746 mmHg 97%
    07:00 -24°C° 0 mm 2 m/s 746 mmHg 97%
    08:00 -24°C° 0 mm 2 m/s 747 mmHg 97%
    09:00 -21°C° 0 mm 2 m/s 747 mmHg 96%
    10:00 -20°C° 0 mm 2 m/s 747 mmHg 95%
    11:00 -16°C° 0 mm 1 m/s 748 mmHg 94%
    12:00 -16°C° 0 mm 1 m/s 748 mmHg 94%
    13:00 -15°C° 0 mm 1 m/s 748 mmHg 94%
    14:00 -14°C° 0 mm 1 m/s 748 mmHg 94%
    15:00 -16°C° 0 mm 1 m/s 748 mmHg 94%
    16:00 -17°C° 0 mm 1 m/s 748 mmHg 95%
    17:00 -18°C° 0 mm 1 m/s 748 mmHg 95%
    18:00 -19°C° 0 mm 1 m/s 748 mmHg 95%
    19:00 -19°C° 0 mm 1 m/s 748 mmHg 94%
    20:00 -20°C° 0 mm 1 m/s 748 mmHg 94%
    21:00 -20°C° 0 mm 1 m/s 748 mmHg 94%
    22:00 -20°C° 0 mm 1 m/s 748 mmHg 93%
    23:00 -21°C° 0 mm 1 m/s 748 mmHg 92%

    23 Ianuarie, Miercuri

    Timp Temperatura Precipitaţii Vânt Presiune Umiditate
    00:00 -21°C° 0 mm 1 m/s 748 mmHg 93%
    01:00 -21°C° 0 mm 1 m/s 748 mmHg 94%
    02:00 -24°C° 0 mm 2 m/s 748 mmHg 95%
    03:00 -24°C° 0 mm 2 m/s 748 mmHg 96%
    04:00 -23°C° 0 mm 2 m/s 748 mmHg 98%
    05:00 -23°C° 0 mm 2 m/s 748 mmHg 99%
    06:00 -23°C° 0 mm 2 m/s 748 mmHg 99%
    07:00 -21°C° 0 mm 2 m/s 748 mmHg 98%
    08:00 -20°C° 0 mm 2 m/s 748 mmHg 98%
    09:00 -19°C° 0 mm 2 m/s 748 mmHg 97%
    10:00 -17°C° 0 mm 2 m/s 748 mmHg 95%
    11:00 -16°C° 0 mm 3 m/s 748 mmHg 94%
    12:00 -15°C° 0 mm 3 m/s 747 mmHg 92%
    13:00 -14°C° 0 mm 3 m/s 747 mmHg 91%
    14:00 -13°C° 0 mm 3 m/s 747 mmHg 89%
    15:00 -13°C° 0 mm 3 m/s 747 mmHg 90%
    16:00 -13°C° 0 mm 3 m/s 747 mmHg 91%
    17:00 -10°C° 0 mm 2 m/s 747 mmHg 92%
    18:00 -10°C° 0 mm 3 m/s 747 mmHg 92%
    19:00 -9°C° 0 mm 3 m/s 747 mmHg 92%
    20:00 -9°C° 0 mm 3 m/s 747 mmHg 91%
    21:00 -9°C° 0 mm 3 m/s 747 mmHg 91%
    22:00 -10°C° 0 mm 4 m/s 747 mmHg 90%
    23:00 -10°C° 0 mm 4 m/s 747 mmHg 90%

    24 Ianuarie, Joi

    Timp Temperatura Precipitaţii Vânt Presiune Umiditate
    00:00 -12°C° 0 mm 4 m/s 748 mmHg 91%
    01:00 -13°C° 0 mm 3 m/s 748 mmHg 92%
    02:00 -14°C° 0 mm 3 m/s 748 mmHg 93%
    03:00 -14°C° 0 mm 3 m/s 748 mmHg 93%
    04:00 -14°C° 0 mm 3 m/s 748 mmHg 93%
    05:00 -15°C° 0 mm 3 m/s 748 mmHg 93%
    06:00 -14°C° 0 mm 2 m/s 748 mmHg 92%
    07:00 -15°C° 0 mm 2 m/s 748 mmHg 91%
    08:00 -16°C° 0 mm 2 m/s 748 mmHg 91%
    09:00 -15°C° 0 mm 2 m/s 749 mmHg 89%
    10:00 -14°C° 0 mm 2 m/s 749 mmHg 88%
    11:00 -13°C° 0 mm 2 m/s 749 mmHg 86%
    12:00 -11°C° 0 mm 1 m/s 749 mmHg 87%
    13:00 -10°C° 0 mm 1 m/s 749 mmHg 87%
    14:00 -10°C° 0 mm 1 m/s 749 mmHg 88%
    15:00 -11°C° 0 mm 1 m/s 749 mmHg 87%
    16:00 -13°C° 0 mm 1 m/s 749 mmHg 86%
    17:00 -14°C° 0 mm 1 m/s 749 mmHg 85%
    18:00 -14°C° 0 mm 1 m/s 749 mmHg 84%
    19:00 -15°C° 0 mm 1 m/s 749 mmHg 83%
    20:00 -15°C° 0 mm 1 m/s 749 mmHg 83%
    21:00 -16°C° 0 mm 1 m/s 749 mmHg 83%
    22:00 -16°C° 0 mm 1 m/s 749 mmHg 84%
    23:00 -16°C° 0 mm 1 m/s 749 mmHg 84%

    25 Ianuarie, Vineri

    Timp Temperatura Precipitaţii Vânt Presiune Umiditate
    00:00 -16°C° 0 mm 1 m/s 749 mmHg 85%
    01:00 -15°C° 0 mm 1 m/s 749 mmHg 86%
    02:00 -17°C° 0 mm 2 m/s 749 mmHg 87%
    03:00 -17°C° 0 mm 2 m/s 749 mmHg 87%
    04:00 -16°C° 0 mm 2 m/s 749 mmHg 87%
    05:00 -16°C° 0 mm 2 m/s 749 mmHg 87%
    06:00 -16°C° 0 mm 2 m/s 749 mmHg 87%
    07:00 -17°C° 0 mm 2 m/s 749 mmHg 87%
    08:00 -17°C° 0 mm 2 m/s 748 mmHg 87%
    09:00 -17°C° 0 mm 2 m/s 748 mmHg 87%
    10:00 -17°C° 0 mm 3 m/s 748 mmHg 88%
    11:00 -17°C° 0 mm 3 m/s 748 mmHg 88%
    12:00 -17°C° 0 mm 3 m/s 748 mmHg 88%
    13:00 -17°C° 0 mm 3 m/s 747 mmHg 89%
    14:00 -16°C° 0 mm 3 m/s 747 mmHg 90%
    15:00 -17°C° 0 mm 3 m/s 747 mmHg 91%
    16:00 -17°C° 0 mm 3 m/s 747 mmHg 92%
    17:00 -17°C° 0 mm 3 m/s 746 mmHg 93%
    18:00 -17°C° 0 mm 3 m/s 746 mmHg 94%
    19:00 -17°C° 0 mm 3 m/s 746 mmHg 94%
    20:00 -17°C° 0 mm 3 m/s 746 mmHg 95%
    21:00 -16°C° 0 mm 2 m/s 745 mmHg 95%
    22:00 -16°C° 0 mm 2 m/s 745 mmHg 95%
    23:00 -16°C° 0 mm 2 m/s 744 mmHg 96%
    Arată mai mult